Palma de Mallorca, Spain

5:21 PM CEST on April 30, 2017 (GMT +0200)
Palma De Mallorca

Weather History for LEPA - February, 2014

Change the Weather History Date:

Tuesday, February 4, 2014

  Actual Average Record
Temperature  
Mean Temperature 48 °F -  
Max Temperature 60 °F 58 °F 64 °F (2000)
Min Temperature 37 °F 39 °F 28 °F (2012)
Degree Days  
Heating Degree Days 16    
Moisture  
Dew Point 40 °F    
Average Humidity 66    
Maximum Humidity 93    
Minimum Humidity 25    
Precipitation  
Precipitation 0.00 in 0.05 in - ()
Sea Level Pressure  
Sea Level Pressure 29.97 in    
Wind  
Wind Speed 7 mph ()    
Max Wind Speed 20 mph    
Max Gust Speed -    
Visibility 7.3 miles    
Events      
Averages and records for this station are not official NWS values.
T = Trace of Precipitation, MM = Missing Value Source: Averaged Metar Reports

Daily Weather History Graph

Daily Weather History Graph

Search for Another Location

Airport or City:

Trip Planner

Search our weather history database for the weather conditions in past years. The results will help you decide how hot, cold, wet, or windy it might be!

Date:

Astronomy

Feb. 04, 2014 Rise Set
Actual Time 7:53 AM CET 6:12 PM CET
Civil Twilight 7:25 AM CET 6:40 PM CET
Nautical Twilight 6:53 AM CET 7:12 PM CET
Astronomical Twilight 6:22 AM CET 7:44 PM CET
Moon 10:24 AM CET (2/4) 11:49 PM CET (2/4)
Length of Visible Light 11h 14m
Length of Day
10h 18m
Waxing Crescent, 26% of the Moon is Illuminated
Feb 4
Waxing Crescent
Feb 6
First Quarter
Feb 15
Full
Feb 22
Last Quarter
Mar 1
New

Hourly Weather History & Observations

Time (CET) Temp. Dew Point Humidity Pressure Visibility Wind Dir Wind Speed Gust Speed Precip Events Conditions
12:00 AM 51 °F 45 °F 74% 29.91 in - West 4.6 mph - -  
12:00 AM 50.0 °F 44.6 °F 82% 29.89 in 6.2 mi West 5.8 mph - N/A   Partly Cloudy
12:30 AM 50.0 °F 44.6 °F 82% 29.89 in 6.2 mi West 3.5 mph - N/A   Scattered Clouds
1:00 AM 52 °F 43 °F 62% 29.91 in 11 mi West 8.1 mph - -   Partly Cloudy
1:00 AM 51.8 °F 44.6 °F 76% 29.89 in 6.2 mi West 9.2 mph - N/A   Scattered Clouds
1:30 AM 51.8 °F 42.8 °F 71% 29.89 in 6.2 mi West 11.5 mph - N/A   Scattered Clouds
2:00 AM 52 °F 42 °F 59% 29.91 in - West 10.4 mph - -  
2:00 AM 51.8 °F 42.8 °F 71% 29.89 in 6.2 mi West 11.5 mph - N/A   Scattered Clouds
2:30 AM 50.0 °F 42.8 °F 76% 29.89 in 6.2 mi West 8.1 mph - N/A   Partly Cloudy
3:00 AM 46 °F 39 °F 68% 29.91 in - NNE 2.3 mph - -  
3:00 AM 46.4 °F 39.2 °F 76% 29.89 in 6.2 mi Variable 2.3 mph - N/A   Partly Cloudy
3:30 AM 44.6 °F 39.2 °F 81% 29.89 in 6.2 mi Variable 1.2 mph - N/A   Scattered Clouds
4:00 AM 44 °F 40 °F 83% 29.92 in 11 mi North 4.6 mph - -   Partly Cloudy
4:00 AM 44.6 °F 41.0 °F 87% 29.92 in 6.2 mi North 1.2 mph - N/A   Scattered Clouds
4:30 AM 42.8 °F 39.2 °F 87% 29.92 in 6.2 mi Calm Calm - N/A   Partly Cloudy
5:00 AM 43 °F 38 °F 78% 29.93 in - Calm Calm - -  
5:00 AM 42.8 °F 39.2 °F 87% 29.92 in 6.2 mi Calm Calm - N/A   Partly Cloudy
5:30 AM 42.8 °F 39.2 °F 87% 29.92 in 6.2 mi Calm Calm - N/A   Partly Cloudy
6:00 AM 41 °F 37 °F 79% 29.95 in - NE 2.3 mph - -  
6:00 AM 41.0 °F 37.4 °F 87% 29.92 in 6.2 mi Calm Calm - N/A   Partly Cloudy
6:30 AM 39.2 °F 35.6 °F 87% 29.95 in 6.2 mi Calm Calm - N/A   Partly Cloudy
7:00 AM 38 °F 36 °F 90% 29.98 in 12 mi East 2.3 mph - -   Scattered Clouds
7:00 AM 37.4 °F 35.6 °F 93% 29.95 in 6.2 mi Calm Calm - N/A   Partly Cloudy
7:30 AM 37.4 °F 35.6 °F 93% 29.98 in 6.2 mi Variable 1.2 mph - N/A   Partly Cloudy
8:00 AM 37 °F 35 °F 91% 30.00 in - Calm Calm - -  
8:00 AM 37.4 °F 35.6 °F 93% 29.98 in 6.2 mi Calm Calm - N/A   Partly Cloudy
8:30 AM 44.6 °F 39.2 °F 81% 29.98 in 6.2 mi Calm Calm - N/A   Partly Cloudy
9:00 AM 50 °F 38 °F 52% 30.01 in - West 2.3 mph - -  
9:00 AM 48.2 °F 39.2 °F 71% 30.01 in 6.2 mi Calm Calm - N/A   Partly Cloudy
9:30 AM 51.8 °F 39.2 °F 62% 30.01 in 6.2 mi Calm Calm - N/A   Partly Cloudy
10:00 AM 55 °F 39 °F 44% 30.03 in 16 mi West 3.5 mph - -   Scattered Clouds
10:00 AM 53.6 °F 39.2 °F 58% 30.01 in 6.2 mi Variable 2.3 mph - N/A   Partly Cloudy
10:30 AM 55.4 °F 39.2 °F 54% 30.01 in 6.2 mi WNW 6.9 mph - N/A   Partly Cloudy
11:00 AM 57 °F 36 °F 34% 30.04 in - WNW 8.1 mph - -  
11:00 AM 55.4 °F 37.4 °F 51% 30.04 in 6.2 mi WNW 8.1 mph - N/A   Partly Cloudy
11:30 AM 55.4 °F 33.8 °F 44% 30.04 in 6.2 mi West 11.5 mph - N/A   Partly Cloudy
12:00 PM 59 °F 33 °F 25% 30.05 in - WNW 6.9 mph - -  
12:00 PM 57.2 °F 32.0 °F 38% 30.04 in 6.2 mi WNW 10.4 mph - N/A   Partly Cloudy
12:30 PM 57.2 °F 33.8 °F 41% 30.04 in 6.2 mi WNW 10.4 mph - N/A   Partly Cloudy
1:00 PM 59 °F 38 °F 33% 30.03 in 19 mi WSW 16.1 mph - -   Scattered Clouds
1:00 PM 57.2 °F 39.2 °F 51% 30.04 in 6.2 mi WSW 13.8 mph - N/A   Partly Cloudy
1:30 PM 57.2 °F 39.2 °F 51% 30.01 in 6.2 mi WSW 15.0 mph - N/A   Partly Cloudy
2:00 PM 58 °F 41 °F 42% 30.02 in - WSW 19.6 mph - -  
2:00 PM 57.2 °F 42.8 °F 59% 30.01 in 6.2 mi WSW 16.1 mph - N/A   Partly Cloudy
2:30 PM 57.2 °F 44.6 °F 63% 30.01 in 6.2 mi WSW 15.0 mph - N/A   Partly Cloudy
3:00 PM 58 °F 42 °F 45% 30.01 in - WSW 16.1 mph - -  
3:00 PM 55.4 °F 44.6 °F 67% 30.01 in 6.2 mi WSW 16.1 mph - N/A   Partly Cloudy
3:30 PM 55.4 °F 42.8 °F 63% 30.01 in 6.2 mi WSW 16.1 mph - N/A   Partly Cloudy
4:00 PM 57 °F 41 °F 45% 30.00 in 19 mi WSW 13.8 mph - -   Scattered Clouds
4:00 PM 55.4 °F 41.0 °F 58% 29.98 in 6.2 mi WSW 15.0 mph - N/A   Partly Cloudy
4:30 PM 55.4 °F 41.0 °F 58% 29.98 in 6.2 mi West 13.8 mph - N/A   Partly Cloudy
5:00 PM 55 °F 41 °F 49% 30.00 in - WSW 10.4 mph - -  
5:00 PM 53.6 °F 42.8 °F 67% 29.98 in 6.2 mi West 11.5 mph - N/A   Scattered Clouds
5:30 PM 55.4 °F 42.8 °F 63% 29.98 in 6.2 mi WSW 11.5 mph - N/A   Scattered Clouds
6:00 PM 54 °F 38 °F 43% 29.99 in - West 12.7 mph - -  
6:00 PM 53.6 °F 39.2 °F 58% 29.98 in 6.2 mi West 13.8 mph - N/A   Partly Cloudy
6:30 PM 53.6 °F 39.2 °F 58% 29.98 in 6.2 mi WSW 11.5 mph - N/A   Partly Cloudy
7:00 PM 52 °F 40 °F 53% 29.99 in 12 mi WSW 8.1 mph - -   Scattered Clouds
7:00 PM 51.8 °F 41.0 °F 67% 29.98 in 6.2 mi WSW 8.1 mph - N/A   Partly Cloudy
7:30 PM 51.8 °F 41.0 °F 67% 29.98 in 6.2 mi WSW 8.1 mph - N/A   Partly Cloudy
8:00 PM 53 °F 43 °F 61% 29.99 in - SW 13.8 mph - -  
8:00 PM 51.8 °F 42.8 °F 71% 29.98 in 6.2 mi SW 11.5 mph - N/A   Partly Cloudy
8:30 PM 53.6 °F 42.8 °F 67% 29.98 in 6.2 mi WSW 15.0 mph - N/A   Partly Cloudy
9:00 PM 53 °F 41 °F 54% 29.99 in - WSW 13.8 mph - -  
9:00 PM 53.6 °F 42.8 °F 67% 29.98 in 6.2 mi WSW 11.5 mph - N/A   Partly Cloudy
9:30 PM 53.6 °F 42.8 °F 67% 29.98 in 6.2 mi SW 15.0 mph - N/A   Partly Cloudy
10:00 PM 54 °F 45 °F 63% 29.97 in 12 mi SW 13.8 mph - -   Scattered Clouds
10:00 PM 53.6 °F 44.6 °F 72% 29.95 in 6.2 mi SW 12.7 mph - N/A   Partly Cloudy
10:30 PM 55.4 °F 46.4 °F 72% 29.95 in 6.2 mi SW 12.7 mph - N/A   Partly Cloudy
11:00 PM 55 °F 47 °F 67% 29.97 in - SW 13.8 mph - -  
11:00 PM 55.4 °F 46.4 °F 72% 29.95 in 6.2 mi SW 11.5 mph - N/A   Partly Cloudy
11:30 PM 55.4 °F 48.2 °F 77% 29.95 in 6.2 mi SW 12.7 mph - N/A   Scattered Clouds